Location: Charbonni�res
(45.9952°N, 2.9982°E)
Time: 13:25:34
(UTC+00:00)

Cosmos 1680 Rocket - Pass Details

Date: 29 November 2020
Orbit: 760 x 781 km, 74.1° (Epoch: 26 January)

Event Time Altitude Azimuth Distance (km) Brightness Sun altitude
Exits shadow 04:19:32 35° 11° (N) 1,253 4.6 -28.5°
Maximum altitude 04:21:23 50° 63° (ENE) 992 4.3 -28.2°
Drops below altitude 10° 04:26:32 10° 139° (SE) 2,328 6.5 -27.3°
Sets 04:28:58 0° 144° (SE) 3,249 7.3 -26.8°
